Home   Weather   Yangon   Past weeks

Flag for Myanmar Past Weather in Yangon, Myanmar — Yesterday and Last 2 Weeks

Now
90 °F

Sunny.


Feels Like: 90 °F
Forecast: 66 / 94 °F
Wind: 6 mph from West

Location: Rangoon Airport

Current Time: Feb 23, 2017 at 1:59:49 pm

Latest Report: Feb 23, 2017 at 1:00 pm


Visibility: 6 mi

Pressure: 29.89 "Hg

Humidity: 38%

Dew Point: 61 °F

Location of YangonLocation

Past Weather in Yangon — Graph

°F

Yangon Temperature Yesterday

Maximum temperature yesterday: 93 °F (at 2:30 pm)
Minimum temperature yesterday: 70 °F (at 7:00 am)
Average temperature yesterday: 84 °F

High & Low Weather Summary for the Past Weeks

 TemperatureHumidityPressure
High95 °F (Feb 10, 3:00 pm)100% (Feb 23, 7:00 am)30.12 "Hg (Feb 23, 7:00 am)
Low68 °F (Feb 10, 6:30 am)32% (Feb 18, 3:30 pm)29.77 "Hg (Feb 20, 3:00 pm)
Average83 °F60%29.93 "Hg
* Reported Feb 8 12:30 pm — Feb 23 1:00 pm, Yangon, Weather by CustomWeather, © 2017

Note: Actual official high and low records may vary slightly from our data, if they occured in-between our weather recording intervals... More about our weather records

Advertising

Yangon Weather History for the Previous 24 Hours

Scroll right to see more
 ConditionsComfort  
Time TempWeatherWind HumidityBarometerVisibility
1:00 pm
Thu, Feb 23
90 °FSunny.6 mph38%29.89 "Hg6 mi
12:30 pm90 °FHot.6 mph38%29.92 "Hg6 mi
12:00 pm90 °FSunny.5 mph38%29.95 "Hg6 mi
11:30 am86 °FClear.5 mph49%29.95 "Hg5 mi
10:30 am73 °FClear.2 mph89%29.98 "Hg4 mi
10:00 am73 °FClear.2 mph89%29.98 "Hg4 mi
9:30 am72 °FFog.3 mph94%29.98 "Hg1 mi
7:00 am70 °FFog.2 mph100%29.92 "Hg1 mi
6:30 am70 °FFog.2 mph94%29.89 "Hg1 mi
6:00 am72 °FFog.2 mph94%29.89 "Hg1 mi
5:30 am72 °FFog.2 mph94%29.86 "Hg2 mi
5:00 am72 °FFog.No wind94%29.86 "Hg2 mi
4:30 am72 °FFog.No wind94%29.86 "Hg3 mi
1:30 am75 °FClear.6 mph74%29.89 "Hg4 mi
1:00 am77 °FClear.5 mph74%29.89 "Hg4 mi
12:30 am79 °FClear.5 mph70%29.92 "Hg4 mi
12:00 am79 °FClear.6 mph70%29.92 "Hg4 mi
11:30 pm
Wed, Feb 22
79 °FClear.5 mph70%29.92 "Hg4 mi
11:00 pm79 °FClear.5 mph70%29.92 "Hg4 mi
10:30 pm79 °FClear.6 mph70%29.92 "Hg4 mi
10:00 pm79 °FClear.6 mph70%29.92 "Hg4 mi
9:30 pm81 °FClear.6 mph62%29.92 "Hg4 mi
9:00 pm81 °FClear.6 mph62%29.92 "Hg4 mi
8:00 pm82 °FClear.6 mph55%29.89 "Hg4 mi
7:30 pm84 °FClear.6 mph58%29.86 "Hg4 mi
7:00 pm84 °FClear.5 mph58%29.86 "Hg4 mi
6:30 pm86 °FClear.5 mph49%29.83 "Hg4 mi
6:00 pm88 °FClear.6 mph46%29.83 "Hg4 mi
5:30 pm90 °FClear.6 mph46%29.83 "Hg5 mi
5:00 pm90 °FClear.8 mph46%29.83 "Hg5 mi
4:30 pm93 °FClear.6 mph39%29.80 "Hg6 mi
4:00 pm93 °FClear.5 mph39%29.80 "Hg6 mi
3:30 pm93 °FClear.5 mph39%29.83 "Hg6 mi
3:00 pm93 °FClear.6 mph39%29.83 "Hg6 mi
2:30 pm93 °FRain. Cloudy.7 mph39%29.83 "Hg6 mi
2:00 pm91 °FClear.7 mph44%29.86 "Hg6 mi
1:30 pm91 °FClear.2 mph44%29.86 "Hg6 mi
1:00 pm91 °FClear.7 mph44%29.89 "Hg6 mi
Weather by CustomWeather, © 2017

See weather overviewHow to use our weather pages